Regional Weather Roundup
Issued by NWS Columbia, SC

Home | Current Version | Previous Version | Text Only | Print | Product List | Glossary On
Versions: 1 2 3 4 5 6 7 8 9 10 11 12 13 14 15 16 17 18 19 20 21 22 23 24 25 26 27 28 29 30 31 32 33 34 35 36 37 38 39 40 41 42 43 44 45 46 47 48 49 50
000
ASUS42 KCAE 221810
RWRCAE
REGIONAL WEATHER ROUNDUP
NATIONAL WEATHER SERVICE COLUMBIA SC
100 PM EST SUN JAN 22 2017

NOTE: "FAIR" INDICATES FEW OR NO CLOUDS BELOW 12,000 FEET WITH NO
SIGNIFICANT WEATHER AND/OR OBSTRUCTIONS TO VISIBILITY.

NOT ALL STATIONS ARE QUALITY CONTROLLED BY THE NATIONAL
WEATHER SERVICE. USE DATA WITH CAUTION...ESPECIALLY
DEWPOINT OBSERVATIONS.

SCZ001>056-GAZ040-063>065-077-221900-
...UPSTATE SOUTH CAROLINA...

CITY           SKY/WX    TMP DP  RH WIND       PRES   REMARKS
ANDERSON       CLOUDY    61  56  83 SE3       29.52R
6HR MIN TEMP:  56; 6HR MAX TEMP:  62;

LIBERTY        CLOUDY    57  56  94 SE3       29.51F
6HR MIN TEMP:  55; 6HR MAX TEMP:  57;

SPARTANBURG    CLOUDY    59  54  82 CALM      29.50F
CLEMSON        CLOUDY    60  55  83 NE3       29.52F
6HR MIN TEMP:  57; 6HR MAX TEMP:  60;

GREENVILLE     CLOUDY    58  55  90 N5        29.52F
6HR MIN TEMP:  56; 6HR MAX TEMP:  59;

GREENWOOD      CLOUDY    64  57  78 S13       29.52F
6HR MIN TEMP:  57; 6HR MAX TEMP:  66; 6HR PCP:  0.01;

GREER          CLOUDY    58  55  90 N3        29.50F
6HR MIN TEMP:  54; 6HR MAX TEMP:  58; 6HR PCP: TRACE;

ROCK HILL      CLOUDY    63  57  81 CALM      29.51F
6HR MIN TEMP:  55; 6HR MAX TEMP:  63; 6HR PCP:  0.05;

CHESTER        MOCLDY    64  55  72 SE5       29.51F
LAURENS        MOCLDY    64  57  77 SE8       29.50F


...CENTRAL SOUTH CAROLINA...

CITY           SKY/WX    TMP DP  RH WIND       PRES   REMARKS
COLUMBIA APT   CLOUDY    66  59  78 SE13      29.49F
6HR MIN TEMP:  60; 6HR MAX TEMP:  67; 6HR PCP:  0.17;

COLUMBIA OWENS PTSUNNY   66  58  75 S10       29.50F
6HR MIN TEMP:  59; 6HR MAX TEMP:  66; 6HR PCP:  0.14;

MCENTIRE ANGB  CLOUDY    65  59  79 S12       29.50F
6HR MIN TEMP:  59; 6HR MAX TEMP:  65; 6HR PCP:  0.26;

ORANGEBURG     CLOUDY    64  60  87 S8        29.51F
6HR MIN TEMP:  59; 6HR MAX TEMP:  63; 6HR PCP:  0.22;

SUMTER SHAW    CLOUDY    65  58  79 SE9       29.48F
6HR MIN TEMP:  59; 6HR MAX TEMP:  65; 6HR PCP:  0.31;

NEWBERRY       PTCLDY    64  57  77 S7        29.53F
AIKEN          CLOUDY    63  59  88 SE10      29.53F
BARNWELL       CLOUDY    64  63  94 SE6       29.52F
CAMDEN         FAIR      64  57  77 SE5       29.51F
LANCASTER      PTCLDY    64  59  82 SE6       29.51F
WINNSBORO      PTCLDY    64  59  82 SE8       29.50F


...EASTERN AND COASTAL SOUTH CAROLINA...

CITY           SKY/WX    TMP DP  RH WIND       PRES   REMARKS
MYRTLE BEACH   PTSUNNY   61  55  82 S7        29.59F
N MYRTLE BCH   CLOUDY    60  58  92 SW5       29.57R FOG
6HR MIN TEMP:  58; 6HR MAX TEMP:  60; 6HR PCP:  0.44;

CONWAY         MOCLDY    61  59  94 S7        29.57F FOG
MARION         FAIR      61  57  88 S7        29.54F
HARTSVILLE     FAIR      63  57  82 S8        29.52F
FLORENCE       CLOUDY    64  59  83 S9        29.53F
6HR MIN TEMP:  59; 6HR MAX TEMP:  64; 6HR PCP:  0.11;

DARLINGTON     MOSUNNY   65  59  81 SE7       29.53F
6HR MIN TEMP:  58; 6HR MAX TEMP:  66;

CHARLESTON APT CLOUDY    63  60  90 SW14      29.54F
6HR MIN TEMP:  61; 6HR MAX TEMP:  63; 6HR PCP:  0.85;

MOUNT PLEASANT CLOUDY    61  61 100 E10G18    29.50F FOG
WALTERBORO     CLOUDY    63  59  88 S8        29.55F
BEAUFORT       CLOUDY    62  60  93 SE12      29.52F
6HR MIN TEMP:  61; 6HR MAX TEMP:  63; 6HR PCP:  0.81;



...EASTERN GEORGIA...

CITY           SKY/WX    TMP DP  RH WIND       PRES   REMARKS
AUGUSTA BUSH F CLOUDY    66  60  81 S12       29.51F
6HR MIN TEMP:  61; 6HR MAX TEMP:  66; 6HR PCP: TRACE;

AUGUSTA DANIEL CLOUDY    64  58  80 S9        29.52F
6HR MIN TEMP:  60; 6HR MAX TEMP:  64; 6HR PCP: TRACE;

THOMSON        CLOUDY    65  63  93 S5        29.55F
6HR MIN TEMP:  60; 6HR MAX TEMP:  66;

WASHINGTON     CLOUDY    64  63  94 SE9       29.51F
CLAXTON        RAIN     N/A N/A N/A CALM      29.54F
SYLVANIA       CLOUDY   N/A N/A N/A S3        29.53F
STATESBORO     CLOUDY    63  50  62 S7        29.52F
6HR MIN TEMP:  61; 6HR MAX TEMP:  64;

SAVANNAH       HVY RAIN  62  59  90 S5        29.57F FOG
6HR MIN TEMP:  59; 6HR MAX TEMP:  62; 6HR PCP:  1.42;



...SOUTHERN NORTH CAROLINA...

CITY           SKY/WX    TMP DP  RH WIND       PRES   REMARKS
CHARLOTTE      CLOUDY    61  55  81 S5        29.53F
6HR MIN TEMP:  55; 6HR MAX TEMP:  61; 6HR PCP:  0.05;

MONROE         CLOUDY    62  55  77 VRB3      29.51F
6HR MIN TEMP:  55; 6HR MAX TEMP:  63; 6HR PCP:  0.06;

WADESBORO      CLOUDY    62  56  82 SE5       29.53F
ROCKINGHAM     CLOUDY    62  59  91 S3        29.54F
RUTHERFORDTON  CLOUDY    56  56 100 CALM      29.52F FOG
ASHEVILLE      CLOUDY    55  51  86 SE6       29.51F
6HR MIN TEMP:  52; 6HR MAX TEMP:  55; 6HR PCP: TRACE;


$$



USA.gov is the U.S. government's official web portal to all federal, state and local government web resources and services.